Regional Weather Roundup
Issued by NWS Green Bay, WI

Home | Current Version | Previous Version | Text Only | Print | Product List | Glossary On
Versions: 1 2 3 4 5 6 7 8 9 10 11 12 13 14 15 16 17 18 19 20 21 22 23 24 25 26 27 28 29 30 31 32 33 34 35 36 37 38 39 40 41 42 43 44 45 46 47 48 49 50
000
ASUS43 KGRB 221911
RWRGRB

NORTH-CENTRAL AND NORTHEAST WISCONSIN REGIONAL WEATHER ROUNDUP
NATIONAL WEATHER SERVICE GREEN BAY WI
200 PM CDT WED MAR 22 2017

WIZ005-009-010>012-018-019-222000-
NORTH CENTRAL WISCONSIN

CITY           SKY/WX    TMP DP  RH WIND       PRES   REMARKS
IRONWOOD       SUNNY     31   8  38 SW7       30.50F
MANITOWISH WTR SUNNY     30   1  29 S8        30.49F
ARBOR VITAE    SUNNY     32   5  32 S6        30.49F
EAGLE RIVER    SUNNY     31  -1  25 S3        30.48F
LAND O LAKES   SUNNY     31   2  29 SW7       30.50F
RHINELANDER    SUNNY     33   3  28 SW9       30.49F
PHILLIPS       MOSUNNY   32   7  35 S7        30.49F
ANTIGO         SUNNY     30   6  36 S5        30.51F
TOMAHAWK       SUNNY     34   6  31 CALM      30.51F
MERRILL        SUNNY     32   9  38 SW7       30.53F
$$

WIZ013-073-222000-
NORTHEAST WISCONSIN

CITY           SKY/WX    TMP DP  RH WIND       PRES   REMARKS
IRON MOUNTAIN  SUNNY     31   3  30 E6        30.52F
MARINETTE        N/A     28  13  53 SE12      30.61F
OCONTO         SUNNY     29  11  46 SE6       30.60F
$$

WIZ017-030-035>037-045-222000-
CENTRAL WISCONSIN

CITY           SKY/WX    TMP DP  RH WIND       PRES   REMARKS
MEDFORD        SUNNY     29   9  43 S6        30.51F
WAUSAU         SUNNY     33   6  32 VRB7      30.52F
MOSINEE        SUNNY     32   5  32 S7        30.53F
MARSHFIELD     SUNNY     30   7  37 CALM      30.51F
WISC RAPIDS    SUNNY     33   5  30 E6        30.55F
STEVENS POINT  SUNNY     31   7  35 SE8       30.53F
WAUPACA        SUNNY     35  10  35 S3        30.57F
SHAWANO        NOT AVBL
CLINTONVILLE   SUNNY     32   9  37 SW3       30.58F
WAUTOMA        SUNNY     33   9  36 CALM      30.56F
$$

WIZ038-039-048-051-222000-
FOX VALLEY

CITY           SKY/WX    TMP DP  RH WIND       PRES   REMARKS
NWS GREEN BAY  SUNNY     32  14  47 VRB3      30.59F
APPLETON       MOSUNNY   30   7  37 VRB5      30.57F
OSHKOSH        SUNNY     31  15  52 E9        30.58F
FOND DU LAC    SUNNY     33  15  47 VRB6      30.57F
$$

WIZ022-050-052-222000-
EAST CENTRAL WISCONSIN

CITY           SKY/WX    TMP DP  RH WIND       PRES   REMARKS
EPHRAIM        FAIR      26  13  59 N7        30.59F
WASHINGTON ISL FAIR      28   8  44 NW6       30.60F
STURGEON BAY   MOSUNNY   28  15  58 NE7       30.60F
MANITOWOC      CLOUDY    29  17  61 CALM      30.61F
SHEBOYGAN      CLOUDY    30  19  63 MISG      30.59F
$$

LMZ563-521-522-541>543-222000-
LAKESHORE

STATION/POSITION TIME  TEMP    WIND        PRES    VSBY  WAVE
                       AIR SEA DIR/SP/G                  HT/PER
                 (UTC) (F)     (DEG/KT/KT) (MB)    (MI)  (FT/S)
SHEBOYGAN LKSHOR 1900   26      50/  8/ 10 1037.2F
KEWAUNEE LKSHORE 1848   26      80/  3/  6 1036.2F
NORTHPORT PIER   1840   27     360/  2/  5 1036.9F
CHAMBERS ISLAND  1840   29     340/  3/  5 1036.2F
MENOMINEE LKSHOR 1848   24     110/  6/  7 1035.6F
$$




USA.gov is the U.S. government's official web portal to all federal, state and local government web resources and services.